Time,TemperatureF,DewpointF,PressureIn,WindDirection,WindDirectionDegrees,WindSpeedMPH,WindSpeedGustMPH,Humidity,HourlyPrecipIn,Conditions,Clouds,dailyrainin,SoftwareType,DateUTC
2013-07-09 00:02:00,82.5,69.1,29.79,South,179,8.5,8.5,64,0.00,CLR,SKC,0.00,WeatherDisplay:10.37,2013-07-09 05:02:00,
2013-07-09 00:07:00,82.5,69.1,29.79,SSE,153,8.5,8.5,64,0.00,CLR,SKC,0.00,WeatherDisplay:10.37,2013-07-09 05:07:00,
2013-07-09 00:12:00,82.5,69.1,29.80,SSE,163,9.2,9.2,64,0.00,CLR,SKC,0.00,WeatherDisplay:10.37,2013-07-09 05:12:00,
2013-07-09 00:17:00,82.4,68.5,29.80,South,178,9.5,9.5,63,0.00,CLR,SKC,0.00,WeatherDisplay:10.37,2013-07-09 05:17:00,
2013-07-09 00:22:00,82.5,68.6,29.80,SW,231,6.9,6.9,63,0.00,CLR,SKC,0.00,WeatherDisplay:10.37,2013-07-09 05:22:00,
2013-07-09 00:27:00,82.4,69.0,29.80,SW,217,5.8,5.8,64,0.00,CLR,SKC,0.00,WeatherDisplay:10.37,2013-07-09 05:27:00,
2013-07-09 00:32:00,82.2,68.8,29.80,SSW,199,7.4,7.4,64,0.00,CLR,SKC,0.00,WeatherDisplay:10.37,2013-07-09 05:32:00,
2013-07-09 00:37:00,82.1,68.7,29.80,SE,131,6.9,6.9,64,0.00,CLR,SKC,0.00,WeatherDisplay:10.37,2013-07-09 05:37:00,
2013-07-09 00:42:00,81.8,68.9,29.81,SE,129,6.4,6.4,65,0.00,CLR,SKC,0.00,WeatherDisplay:10.37,2013-07-09 05:42:00,
2013-07-09 00:47:00,81.7,68.8,29.81,SE,129,6.9,6.9,65,0.00,CLR,SKC,0.00,WeatherDisplay:10.37,2013-07-09 05:47:00,
2013-07-09 00:52:00,81.5,68.6,29.81,SW,224,5.8,5.8,65,0.00,CLR,SKC,0.00,WeatherDisplay:10.37,2013-07-09 05:52:00,
2013-07-09 00:57:00,81.4,68.9,29.81,SE,141,6.9,6.9,66,0.00,CLR,SKC,0.00,WeatherDisplay:10.37,2013-07-09 05:57:00,
2013-07-09 01:02:00,81.2,68.8,29.81,SSE,154,3.5,3.5,66,0.00,CLR,SKC,0.00,WeatherDisplay:10.37,2013-07-09 06:02:00,
2013-07-09 01:07:00,81.0,69.0,29.81,SSE,156,3.5,3.5,67,0.00,CLR,SKC,0.00,WeatherDisplay:10.37,2013-07-09 06:07:00,
2013-07-09 01:12:00,80.9,68.9,29.81,East,84,4.2,4.2,67,0.00,CLR,SKC,0.00,WeatherDisplay:10.37,2013-07-09 06:12:00,
2013-07-09 01:17:00,80.6,69.1,29.82,SE,144,2.3,2.3,68,0.00,CLR,SKC,0.00,WeatherDisplay:10.37,2013-07-09 06:17:00,
2013-07-09 01:22:00,80.4,68.9,29.82,SSE,149,2.3,2.3,68,0.00,CLR,SKC,0.00,WeatherDisplay:10.37,2013-07-09 06:22:00,
2013-07-09 01:27:00,80.1,69.0,29.82,SSW,193,0.0,0.0,69,0.00,CLR,SKC,0.00,WeatherDisplay:10.37,2013-07-09 06:27:00,
2013-07-09 01:32:00,79.9,68.8,29.82,SE,140,0.0,0.0,69,0.00,CLR,SKC,0.00,WeatherDisplay:10.37,2013-07-09 06:32:00,
2013-07-09 01:37:00,79.7,69.0,29.81,ESE,119,2.3,0.0,70,0.00,CLR,SKC,0.00,WeatherDisplay:10.37,2013-07-09 06:37:00,
2013-07-09 01:42:00,79.4,69.2,29.81,SE,141,3.5,3.5,71,0.00,CLR,SKC,0.00,WeatherDisplay:10.37,2013-07-09 06:42:00,
2013-07-09 01:47:00,79.4,69.2,29.82,SE,125,3.2,3.2,71,0.00,CLR,SKC,0.00,WeatherDisplay:10.37,2013-07-09 06:47:00,
2013-07-09 01:52:00,79.5,69.3,29.81,SE,136,3.5,3.5,71,0.00,CLR,SKC,0.00,WeatherDisplay:10.37,2013-07-09 06:52:00,
2013-07-09 01:57:00,79.7,69.0,29.81,SW,221,0.0,0.0,70,0.00,CLR,SKC,0.00,WeatherDisplay:10.37,2013-07-09 06:57:00,
2013-07-09 02:02:00,79.9,69.2,29.81,SSE,158,3.2,3.2,70,0.00,CLR,SKC,0.00,WeatherDisplay:10.37,2013-07-09 07:02:00,
2013-07-09 02:07:00,80.2,69.5,29.81,ESE,114,4.6,4.6,70,0.00,CLR,SKC,0.00,WeatherDisplay:10.37,2013-07-09 07:07:00,
2013-07-09 02:12:00,80.0,69.7,29.80,ESE,108,5.8,5.8,71,0.00,CLR,SKC,0.00,WeatherDisplay:10.37,2013-07-09 07:12:00,
2013-07-09 02:17:00,79.3,70.3,29.80,SSE,157,5.8,5.8,74,0.00,CLR,SKC,0.00,WeatherDisplay:10.37,2013-07-09 07:17:00,
2013-07-09 02:22:00,78.8,70.2,29.80,SW,229,2.1,2.1,75,0.00,CLR,SKC,0.00,WeatherDisplay:10.37,2013-07-09 07:22:00,
2013-07-09 02:27:00,78.6,70.4,29.80,SSE,162,2.3,2.3,76,0.00,CLR,SKC,0.00,WeatherDisplay:10.37,2013-07-09 07:27:00,
2013-07-09 02:32:00,78.6,70.0,29.81,SSE,148,2.1,0.0,75,0.00,CLR,SKC,0.00,WeatherDisplay:10.37,2013-07-09 07:32:00,
2013-07-09 02:37:00,78.9,69.9,29.81,SE,145,0.0,0.0,74,0.00,CLR,SKC,0.00,WeatherDisplay:10.37,2013-07-09 07:37:00,
2013-07-09 02:42:00,79.2,70.2,29.80,SE,134,2.3,2.3,74,0.00,CLR,SKC,0.00,WeatherDisplay:10.37,2013-07-09 07:42:00,
2013-07-09 02:47:00,79.4,70.4,29.80,SE,144,4.6,4.6,74,0.00,CLR,SKC,0.00,WeatherDisplay:10.37,2013-07-09 07:47:00,
2013-07-09 02:52:00,79.6,70.2,29.80,South,183,2.3,2.3,73,0.00,CLR,SKC,0.00,WeatherDisplay:10.37,2013-07-09 07:52:00,
2013-07-09 02:57:00,79.9,70.1,29.81,SW,224,6.9,6.9,72,0.00,CLR,SKC,0.00,WeatherDisplay:10.37,2013-07-09 07:57:00,
2013-07-09 03:02:00,80.3,70.0,29.82,SW,226,0.0,0.0,71,0.00,CLR,SKC,0.00,WeatherDisplay:10.37,2013-07-09 08:02:00,
2013-07-09 03:07:00,80.7,70.0,29.83,WSW,257,1.2,1.2,70,0.00,CLR,SKC,0.00,WeatherDisplay:10.37,2013-07-09 08:07:00,
2013-07-09 03:13:00,81.0,69.9,29.84,SW,236,1.2,0.0,69,0.00,CLR,SKC,0.00,WeatherDisplay:10.37,2013-07-09 08:13:00,
2013-07-09 03:18:00,81.2,69.6,29.84,South,179,5.3,5.3,68,0.00,CLR,SKC,0.00,WeatherDisplay:10.37,2013-07-09 08:18:00,
2013-07-09 03:23:00,81.8,69.3,29.84,WSW,255,9.2,9.2,66,0.00,CLR,SKC,0.00,WeatherDisplay:10.37,2013-07-09 08:23:00,
2013-07-09 03:28:00,82.1,69.2,29.84,SW,219,9.5,9.5,65,0.00,CLR,SKC,0.00,WeatherDisplay:10.37,2013-07-09 08:28:00,
2013-07-09 03:33:00,82.3,69.4,29.83,SSW,211,12.7,12.7,65,0.00,CLR,SKC,0.00,WeatherDisplay:10.37,2013-07-09 08:33:00,
2013-07-09 03:38:00,82.2,69.3,29.83,SSW,210,5.8,5.8,65,0.00,CLR,SKC,0.00,WeatherDisplay:10.37,2013-07-09 08:38:00,
2013-07-09 03:43:00,81.9,69.4,29.83,South,180,9.5,9.5,66,0.00,CLR,SKC,0.00,WeatherDisplay:10.37,2013-07-09 08:43:00,
2013-07-09 03:48:00,81.6,69.6,29.83,South,181,8.1,8.1,67,0.00,CLR,SKC,0.00,WeatherDisplay:10.37,2013-07-09 08:48:00,
2013-07-09 03:53:00,81.4,69.4,29.83,South,191,6.9,6.9,67,0.00,CLR,SKC,0.00,WeatherDisplay:10.37,2013-07-09 08:53:00,
2013-07-09 03:58:00,81.2,69.2,29.82,SSE,149,7.4,7.4,67,0.00,CLR,SKC,0.00,WeatherDisplay:10.37,2013-07-09 08:58:00,
2013-07-09 04:03:00,81.0,69.4,29.82,South,184,6.9,6.9,68,0.00,CLR,SKC,0.00,WeatherDisplay:10.37,2013-07-09 09:03:00,
2013-07-09 04:08:00,80.8,69.7,29.82,SSE,165,8.5,8.5,69,0.00,CLR,SKC,0.00,WeatherDisplay:10.37,2013-07-09 09:08:00,
2013-07-09 04:13:00,80.6,69.5,29.82,South,186,6.4,6.4,69,0.00,CLR,SKC,0.00,WeatherDisplay:10.37,2013-07-09 09:13:00,
2013-07-09 04:18:00,80.3,69.6,29.82,SE,138,6.9,6.9,70,0.00,CLR,SKC,0.00,WeatherDisplay:10.37,2013-07-09 09:18:00,
2013-07-09 04:23:00,80.2,69.5,29.82,SE,124,6.9,6.9,70,0.00,CLR,SKC,0.00,WeatherDisplay:10.37,2013-07-09 09:23:00,
2013-07-09 04:28:00,80.1,69.4,29.81,SE,143,6.9,6.9,70,0.00,CLR,SKC,0.00,WeatherDisplay:10.37,2013-07-09 09:28:00,
2013-07-09 04:33:00,80.0,69.7,29.81,SE,131,5.8,5.8,71,0.00,CLR,SKC,0.00,WeatherDisplay:10.37,2013-07-09 09:33:00,
2013-07-09 04:38:00,79.9,69.7,29.81,SSW,195,7.4,7.4,71,0.00,CLR,SKC,0.00,WeatherDisplay:10.37,2013-07-09 09:38:00,
2013-07-09 04:43:00,79.9,69.2,29.81,SW,214,8.5,8.5,70,0.00,CLR,SKC,0.00,WeatherDisplay:10.37,2013-07-09 09:43:00,
2013-07-09 04:48:00,80.0,69.3,29.81,SSW,203,8.5,8.5,70,0.00,CLR,SKC,0.00,WeatherDisplay:10.37,2013-07-09 09:48:00,
2013-07-09 04:53:00,80.1,69.4,29.80,SW,231,7.4,7.4,70,0.00,CLR,SKC,0.00,WeatherDisplay:10.37,2013-07-09 09:53:00,
2013-07-09 04:58:00,80.0,69.3,29.79,SE,139,11.5,11.5,70,0.00,CLR,SKC,0.00,WeatherDisplay:10.37,2013-07-09 09:58:00,
2013-07-09 05:03:00,79.4,70.0,29.77,SE,127,10.6,10.6,73,0.00,CLR,SKC,0.00,WeatherDisplay:10.37,2013-07-09 10:03:00,
2013-07-09 05:08:00,78.7,70.1,29.75,SE,124,13.8,13.8,75,0.00,CLR,SKC,0.00,WeatherDisplay:10.37,2013-07-09 10:08:00,
2013-07-09 05:13:00,78.1,69.9,29.74,ESE,110,13.8,13.8,76,0.00,CLR,SKC,0.00,WeatherDisplay:10.37,2013-07-09 10:13:00,
2013-07-09 05:18:00,77.8,70.0,29.73,East,100,9.5,9.5,77,0.00,CLR,SKC,0.00,WeatherDisplay:10.37,2013-07-09 10:18:00,
2013-07-09 05:23:00,77.4,70.0,29.73,SE,136,11.5,11.5,78,0.00,CLR,SKC,0.00,WeatherDisplay:10.37,2013-07-09 10:23:00,
2013-07-09 05:28:00,77.5,70.1,29.74,ESE,117,12.7,12.7,78,0.00,CLR,SKC,0.00,WeatherDisplay:10.37,2013-07-09 10:28:00,
2013-07-09 05:33:00,77.3,70.3,29.75,SSE,159,9.5,9.5,79,0.00,CLR,SKC,0.00,WeatherDisplay:10.37,2013-07-09 10:33:00,
2013-07-09 05:38:00,77.2,70.2,29.75,SE,131,6.4,6.4,79,0.00,CLR,SKC,0.00,WeatherDisplay:10.37,2013-07-09 10:38:00,
2013-07-09 05:43:00,77.0,70.4,29.77,SE,141,5.8,5.8,80,0.00,CLR,SKC,0.00,WeatherDisplay:10.37,2013-07-09 10:43:00,
2013-07-09 05:48:00,76.9,70.3,29.78,SW,230,0.0,0.0,80,0.00,CLR,SKC,0.00,WeatherDisplay:10.37,2013-07-09 10:48:00,
2013-07-09 05:53:00,76.9,70.3,29.79,South,177,6.4,6.4,80,0.00,CLR,SKC,0.00,WeatherDisplay:10.37,2013-07-09 10:53:00,
2013-07-09 05:58:00,77.0,70.4,29.79,SW,233,4.6,4.6,80,0.00,CLR,SKC,0.00,WeatherDisplay:10.37,2013-07-09 10:58:00,
2013-07-09 06:03:00,77.0,70.4,29.79,SSE,159,2.1,2.1,80,0.00,CLR,SKC,0.00,WeatherDisplay:10.37,2013-07-09 11:03:00,
2013-07-09 06:08:00,76.8,70.2,29.79,SE,131,4.6,4.6,80,0.00,CLR,SKC,0.00,WeatherDisplay:10.37,2013-07-09 11:08:00,
2013-07-09 06:13:00,76.5,70.2,29.79,SSW,193,2.1,2.1,81,0.00,CLR,SKC,0.00,WeatherDisplay:10.37,2013-07-09 11:13:00,
2013-07-09 06:18:00,76.2,70.3,29.80,South,171,1.2,0.0,82,0.00,CLR,SKC,0.00,WeatherDisplay:10.37,2013-07-09 11:18:00,
2013-07-09 06:23:00,76.1,70.6,29.80,SSW,201,0.0,0.0,83,0.00,CLR,SKC,0.00,WeatherDisplay:10.37,2013-07-09 11:23:00,
2013-07-09 06:28:00,76.1,70.6,29.81,WSW,239,0.0,0.0,83,0.00,CLR,SKC,0.00,WeatherDisplay:10.37,2013-07-09 11:28:00,
2013-07-09 06:33:00,76.1,70.6,29.81,SE,145,0.0,0.0,83,0.00,CLR,SKC,0.00,WeatherDisplay:10.37,2013-07-09 11:33:00,
2013-07-09 06:38:00,76.0,70.5,29.80,ESE,122,6.9,6.9,83,0.00,CLR,SKC,0.00,WeatherDisplay:10.37,2013-07-09 11:38:00,
2013-07-09 06:43:00,75.7,70.9,29.79,ESE,117,7.4,7.4,85,0.01,RA,SKC,0.02,WeatherDisplay:10.37,2013-07-09 11:43:00,
2013-07-09 06:48:00,75.5,70.7,29.79,SE,132,7.4,7.4,85,0.05,RA,SKC,0.05,WeatherDisplay:10.37,2013-07-09 11:48:00,
2013-07-09 06:53:00,75.4,70.9,29.80,NE,43,6.9,6.9,86,0.07,RA,SKC,0.07,WeatherDisplay:10.37,2013-07-09 11:53:00,
2013-07-09 06:58:00,75.1,70.6,29.80,NNE,13,0.0,0.0,86,0.08,RA,SKC,0.08,WeatherDisplay:10.37,2013-07-09 11:58:00,
2013-07-09 07:03:00,74.9,70.8,29.81,NNE,25,1.2,1.2,87,0.19,RA,SKC,0.19,WeatherDisplay:10.37,2013-07-09 12:03:00,
2013-07-09 07:08:00,74.6,70.8,29.80,East,89,6.9,6.9,88,0.27,RA,SKC,0.27,WeatherDisplay:10.37,2013-07-09 12:08:00,
2013-07-09 07:13:00,74.7,70.9,29.80,East,79,8.1,8.1,88,0.27,RA,SKC,0.27,WeatherDisplay:10.37,2013-07-09 12:13:00,
2013-07-09 07:18:00,74.8,71.0,29.80,ESE,108,5.8,5.8,88,0.27,RA,SKC,0.27,WeatherDisplay:10.37,2013-07-09 12:18:00,
2013-07-09 07:23:00,75.0,70.9,29.79,ESE,109,6.9,6.9,87,0.27,CLR,SKC,0.27,WeatherDisplay:10.37,2013-07-09 12:23:00,
2013-07-09 07:28:00,75.3,71.2,29.79,SE,124,5.8,5.8,87,0.30,RA,SKC,0.30,WeatherDisplay:10.37,2013-07-09 12:28:00,
2013-07-09 07:33:00,75.1,71.0,29.79,ESE,107,8.1,8.1,87,0.38,RA,SKC,0.44,WeatherDisplay:10.37,2013-07-09 12:33:00,
2013-07-09 07:38:00,75.2,71.1,29.79,SE,129,8.5,8.5,87,0.44,RA,SKC,0.44,WeatherDisplay:10.37,2013-07-09 12:38:00,
2013-07-09 07:43:00,75.3,71.5,29.79,ESE,116,6.9,6.9,88,0.43,RA,SKC,0.44,WeatherDisplay:10.37,2013-07-09 12:43:00,
2013-07-09 07:48:00,75.5,71.4,29.79,ESE,123,5.8,5.8,87,0.38,CLR,SKC,0.44,WeatherDisplay:10.37,2013-07-09 12:48:00,
2013-07-09 07:53:00,75.7,71.2,29.78,ESE,103,7.4,7.4,86,0.86,RA,SKC,0.92,WeatherDisplay:10.37,2013-07-09 12:53:00,
2013-07-09 07:58:00,75.8,71.3,29.78,ESE,105,8.1,8.1,86,0.87,RA,SKC,0.95,WeatherDisplay:10.37,2013-07-09 12:58:00,
2013-07-09 08:03:00,75.8,71.3,29.78,ESE,106,6.9,6.9,86,0.96,RA,SKC,1.15,WeatherDisplay:10.37,2013-07-09 13:03:00,
2013-07-09 08:08:00,76.4,71.6,29.79,East,96,9.5,9.5,85,0.88,RA,SKC,1.15,WeatherDisplay:10.37,2013-07-09 13:08:00,
2013-07-09 08:13:00,77.2,72.0,29.78,East,95,7.4,7.4,84,0.88,RA,SKC,1.15,WeatherDisplay:10.37,2013-07-09 13:13:00,
2013-07-09 08:18:00,77.6,72.4,29.79,East,89,8.5,8.5,84,0.88,CLR,SKC,1.15,WeatherDisplay:10.37,2013-07-09 13:18:00,
2013-07-09 08:23:00,77.6,72.4,29.79,ESE,110,4.6,4.6,84,0.89,RA,SKC,1.17,WeatherDisplay:10.37,2013-07-09 13:23:00,
2013-07-09 08:28:00,77.7,72.5,29.80,ESE,110,4.6,4.6,84,1.08,RA,SKC,1.37,WeatherDisplay:10.37,2013-07-09 13:28:00,
2013-07-09 08:33:00,78.1,72.5,29.81,SE,127,4.6,4.6,83,0.99,RA,SKC,1.37,WeatherDisplay:10.37,2013-07-09 13:33:00,
2013-07-09 08:38:00,78.5,72.5,29.82,SE,144,3.5,3.5,82,1.07,RA,SKC,1.51,WeatherDisplay:10.37,2013-07-09 13:38:00,
2013-07-09 08:43:00,79.0,73.0,29.81,SE,136,3.5,3.5,82,1.07,RA,SKC,1.51,WeatherDisplay:10.37,2013-07-09 13:43:00,
2013-07-09 08:48:00,79.9,73.2,29.82,SSE,149,3.2,3.2,80,1.40,RA,SKC,1.85,WeatherDisplay:10.37,2013-07-09 13:48:00,
2013-07-09 08:53:00,80.5,72.6,29.82,East,94,0.0,0.0,77,0.92,RA,SKC,1.85,WeatherDisplay:10.37,2013-07-09 13:53:00,
2013-07-09 08:58:00,80.6,73.5,29.82,SSE,147,4.2,4.2,79,0.87,RA,SKC,1.85,WeatherDisplay:10.37,2013-07-09 13:58:00,
2013-07-09 09:03:00,80.7,73.2,29.82,ESE,107,6.4,6.4,78,1.21,RA,SKC,2.47,WeatherDisplay:10.37,2013-07-09 14:03:00,
2013-07-09 09:08:00,80.8,74.0,29.82,ENE,72,1.1,1.1,80,3.12,RA,SKC,4.28,WeatherDisplay:10.37,2013-07-09 14:08:00,
2013-07-09 09:14:00,81.4,73.5,29.83,East,101,0.0,0.0,77,3.38,RA,SKC,4.54,WeatherDisplay:10.37,2013-07-09 14:14:00,
2013-07-09 09:19:00,82.5,73.8,29.82,SSE,153,0.0,0.0,75,3.39,RA,SKC,4.55,WeatherDisplay:10.37,2013-07-09 14:19:00,
2013-07-09 09:24:00,82.4,73.3,29.82,SSE,155,4.6,4.6,74,3.74,RA,SKC,4.91,WeatherDisplay:10.37,2013-07-09 14:24:00,
2013-07-09 09:29:00,81.9,73.6,29.82,East,95,4.6,4.6,76,3.53,RA,SKC,4.91,WeatherDisplay:10.37,2013-07-09 14:29:00,
2013-07-09 09:34:00,82.0,73.7,29.82,SSE,155,3.2,3.2,76,3.54,RA,SKC,4.92,WeatherDisplay:10.37,2013-07-09 14:34:00,
2013-07-09 09:39:00,82.3,73.6,29.82,SE,131,3.5,3.5,75,3.41,RA,SKC,4.92,WeatherDisplay:10.37,2013-07-09 14:39:00,
2013-07-09 09:44:00,82.6,73.9,29.82,SSE,153,3.5,0.0,75,3.41,CLR,SKC,4.92,WeatherDisplay:10.37,2013-07-09 14:44:00,
2013-07-09 09:49:00,83.0,73.4,29.82,WSW,239,0.0,0.0,73,3.08,CLR,SKC,4.92,WeatherDisplay:10.37,2013-07-09 14:49:00,
2013-07-09 09:54:00,83.4,73.8,29.82,SE,132,3.5,3.5,73,3.07,CLR,SKC,4.92,WeatherDisplay:10.37,2013-07-09 14:54:00,
2013-07-09 09:59:00,83.5,73.9,29.82,SW,216,0.0,0.0,73,3.07,CLR,SKC,4.92,WeatherDisplay:10.37,2013-07-09 14:59:00,
2013-07-09 10:04:00,84.4,74.8,29.82,ESE,110,0.0,0.0,73,2.56,CLR,SKC,4.92,WeatherDisplay:10.37,2013-07-09 15:04:00,
2013-07-09 10:09:00,84.8,74.8,29.82,West,262,1.2,1.2,72,0.64,CLR,SKC,4.92,WeatherDisplay:10.37,2013-07-09 15:09:00,
2013-07-09 10:14:00,85.2,74.3,29.82,ESE,106,0.0,0.0,70,0.38,CLR,SKC,4.92,WeatherDisplay:10.37,2013-07-09 15:14:00,
2013-07-09 10:19:00,85.7,74.4,29.82,SW,219,0.0,0.0,69,0.37,CLR,SKC,4.92,WeatherDisplay:10.37,2013-07-09 15:19:00,
2013-07-09 10:24:00,85.6,73.8,29.83,SE,146,3.5,0.0,68,0.01,CLR,SKC,4.92,WeatherDisplay:10.37,2013-07-09 15:24:00,
2013-07-09 10:29:00,85.7,76.0,29.82,SSE,148,1.2,0.0,73,0.01,CLR,SKC,4.92,WeatherDisplay:10.37,2013-07-09 15:29:00,
2013-07-09 10:34:00,86.2,74.8,29.82,NE,47,0.0,0.0,69,0.12,RA,SKC,5.05,WeatherDisplay:10.37,2013-07-09 15:34:00,
2013-07-09 10:39:00,86.7,74.9,29.82,SSE,147,0.0,0.0,68,0.44,RA,SKC,5.36,WeatherDisplay:10.37,2013-07-09 15:39:00,
2013-07-09 10:44:00,86.9,74.6,29.83,SSE,160,0.0,0.0,67,0.44,RA,SKC,5.36,WeatherDisplay:10.37,2013-07-09 15:44:00,
2013-07-09 10:49:00,86.4,74.1,29.82,SW,226,0.0,0.0,67,0.44,CLR,SKC,5.36,WeatherDisplay:10.37,2013-07-09 15:49:00,
2013-07-09 10:54:00,85.6,74.3,29.82,ESE,106,3.5,3.5,69,0.44,CLR,SKC,5.36,WeatherDisplay:10.37,2013-07-09 15:54:00,
2013-07-09 10:59:00,84.9,74.4,29.81,East,84,5.8,5.8,71,0.44,CLR,SKC,5.36,WeatherDisplay:10.37,2013-07-09 15:59:00,
2013-07-09 11:04:00,85.1,74.6,29.82,SSE,162,3.2,3.2,71,0.44,CLR,SKC,5.36,WeatherDisplay:10.37,2013-07-09 16:04:00,
2013-07-09 11:09:00,85.7,74.8,29.81,SSE,160,7.4,7.4,70,0.44,CLR,SKC,5.36,WeatherDisplay:10.37,2013-07-09 16:09:00,
2013-07-09 11:14:00,85.9,73.7,29.81,SSW,203,7.4,7.4,67,0.44,CLR,SKC,5.36,WeatherDisplay:10.37,2013-07-09 16:14:00,
2013-07-09 11:19:00,86.5,74.2,29.81,SW,235,3.5,3.5,67,0.44,CLR,SKC,5.36,WeatherDisplay:10.37,2013-07-09 16:19:00,
2013-07-09 11:24:00,86.6,74.8,29.81,ENE,64,2.1,2.1,68,0.44,CLR,SKC,5.36,WeatherDisplay:10.37,2013-07-09 16:24:00,
2013-07-09 11:29:00,86.6,74.8,29.81,NNE,18,1.2,1.2,68,0.44,CLR,SKC,5.36,WeatherDisplay:10.37,2013-07-09 16:29:00,
2013-07-09 11:34:00,86.3,74.9,29.81,NNW,334,1.2,1.2,69,0.25,CLR,SKC,5.36,WeatherDisplay:10.37,2013-07-09 16:34:00,
2013-07-09 11:39:00,86.1,74.3,29.81,NNE,12,0.0,0.0,68,0.00,CLR,SKC,5.36,WeatherDisplay:10.37,2013-07-09 16:39:00,
2013-07-09 11:44:00,86.2,75.3,29.81,South,181,5.8,5.8,70,0.00,CLR,SKC,5.36,WeatherDisplay:10.37,2013-07-09 16:44:00,
2013-07-09 11:49:00,86.3,74.5,29.81,ENE,70,1.2,0.0,68,0.00,CLR,SKC,5.36,WeatherDisplay:10.37,2013-07-09 16:49:00,
2013-07-09 11:54:00,87.0,76.9,29.82,WSW,257,0.0,0.0,72,0.00,CLR,SKC,5.36,WeatherDisplay:10.37,2013-07-09 16:54:00,
2013-07-09 11:59:00,87.7,74.5,29.81,WNW,284,4.6,4.6,65,0.00,CLR,SKC,5.36,WeatherDisplay:10.37,2013-07-09 16:59:00,
2013-07-09 12:04:00,87.7,75.4,29.81,East,92,1.2,0.0,67,0.00,CLR,SKC,5.36,WeatherDisplay:10.37,2013-07-09 17:04:00,
2013-07-09 12:09:00,87.1,73.9,29.81,ENE,75,4.6,4.6,65,0.00,CLR,SKC,5.36,WeatherDisplay:10.37,2013-07-09 17:09:00,
2013-07-09 12:14:00,87.2,74.9,29.81,WNW,295,1.2,1.2,67,0.00,CLR,SKC,5.36,WeatherDisplay:10.37,2013-07-09 17:14:00,
2013-07-09 12:19:00,87.4,74.6,29.81,NW,325,1.2,0.0,66,0.00,CLR,SKC,5.36,WeatherDisplay:10.37,2013-07-09 17:19:00,
2013-07-09 12:24:00,87.7,74.9,29.81,East,92,4.6,4.6,66,0.00,CLR,SKC,5.36,WeatherDisplay:10.37,2013-07-09 17:24:00,
2013-07-09 12:29:00,87.7,75.4,29.80,ESE,105,5.3,5.3,67,0.00,CLR,SKC,5.36,WeatherDisplay:10.37,2013-07-09 17:29:00,
2013-07-09 12:34:00,88.4,74.7,29.81,SW,217,1.2,1.2,64,0.00,CLR,SKC,5.36,WeatherDisplay:10.37,2013-07-09 17:34:00,
2013-07-09 12:39:00,89.2,75.0,29.80,WSW,248,0.0,0.0,63,0.09,RA,SKC,5.44,WeatherDisplay:10.37,2013-07-09 17:39:00,
2013-07-09 12:44:00,89.5,76.2,29.80,ESE,116,9.5,9.5,65,0.09,RA,SKC,5.44,WeatherDisplay:10.37,2013-07-09 17:44:00,
2013-07-09 12:49:00,89.1,75.3,29.80,WSW,249,1.2,0.0,64,0.09,,SKC,5.44,WeatherDisplay:10.37,2013-07-09 17:49:00,
2013-07-09 12:54:00,89.5,75.2,29.80,NW,321,5.8,5.8,63,0.09,CLR,SKC,5.47,WeatherDisplay:10.37,2013-07-09 17:54:00,
2013-07-09 12:59:00,89.8,76.0,29.80,ESE,104,5.3,5.3,64,0.34,RA,SKC,5.70,WeatherDisplay:10.37,2013-07-09 17:59:00,
2013-07-09 13:04:00,89.6,73.9,29.79,ENE,70,5.8,5.8,60,0.42,RA,SKC,5.77,WeatherDisplay:10.37,2013-07-09 18:04:00,
2013-07-09 13:09:00,90.0,74.2,29.79,SSE,148,8.1,8.1,60,0.42,RA,SKC,5.77,WeatherDisplay:10.37,2013-07-09 18:09:00,
2013-07-09 13:14:00,90.3,76.0,29.79,SW,221,4.2,4.2,63,0.42,CLR,SKC,5.77,WeatherDisplay:10.37,2013-07-09 18:14:00,
2013-07-09 13:19:00,91.3,76.5,29.79,NW,309,2.1,2.1,62,0.42,CLR,SKC,5.77,WeatherDisplay:10.37,2013-07-09 18:19:00,
2013-07-09 13:24:00,91.1,73.7,29.79,West,265,3.5,3.5,57,0.42,CLR,SKC,5.77,WeatherDisplay:10.37,2013-07-09 18:24:00,
2013-07-09 13:29:00,91.3,75.5,29.79,SW,216,3.5,3.5,60,0.42,CLR,SKC,5.77,WeatherDisplay:10.37,2013-07-09 18:29:00,
2013-07-09 13:34:00,91.9,74.5,29.79,SE,135,1.2,1.2,57,0.42,CLR,SKC,5.77,WeatherDisplay:10.37,2013-07-09 18:34:00,
2013-07-09 13:39:00,92.1,74.7,29.79,South,188,7.4,7.4,57,0.33,CLR,SKC,5.77,WeatherDisplay:10.37,2013-07-09 18:39:00,
2013-07-09 13:44:00,91.8,74.4,29.79,SSE,165,4.6,4.6,57,0.33,CLR,SKC,5.77,WeatherDisplay:10.37,2013-07-09 18:44:00,
2013-07-09 13:49:00,92.0,74.6,29.79,WSW,238,0.0,0.0,57,0.33,CLR,SKC,5.77,WeatherDisplay:10.37,2013-07-09 18:49:00,
2013-07-09 13:54:00,92.5,74.5,29.79,SE,140,3.5,0.0,56,0.29,RA,SKC,5.79,WeatherDisplay:10.37,2013-07-09 18:54:00,
2013-07-09 13:59:00,92.4,75.5,29.79,ESE,118,5.8,5.8,58,0.09,RA,SKC,5.79,WeatherDisplay:10.37,2013-07-09 18:59:00,
2013-07-09 14:04:00,92.0,74.6,29.78,SSE,150,5.3,5.3,57,0.01,CLR,SKC,5.79,WeatherDisplay:10.37,2013-07-09 19:04:00,
2013-07-09 14:09:00,92.2,74.8,29.78,South,172,7.4,7.4,57,0.01,CLR,SKC,5.79,WeatherDisplay:10.37,2013-07-09 19:09:00,
2013-07-09 14:14:00,92.2,75.8,29.78,NNW,330,3.5,3.5,59,0.01,CLR,SKC,5.79,WeatherDisplay:10.37,2013-07-09 19:14:00,
2013-07-09 14:19:00,92.2,74.8,29.78,West,276,4.6,4.6,57,0.01,CLR,SKC,5.79,WeatherDisplay:10.37,2013-07-09 19:19:00,
2013-07-09 14:24:00,92.4,76.0,29.78,SW,236,4.6,4.6,59,0.01,CLR,SKC,5.79,WeatherDisplay:10.37,2013-07-09 19:24:00,
2013-07-09 14:29:00,92.9,76.5,29.78,West,278,4.6,4.6,59,0.01,CLR,SKC,5.79,WeatherDisplay:10.37,2013-07-09 19:29:00,
2013-07-09 14:34:00,93.0,74.4,29.78,South,191,4.6,4.6,55,0.01,CLR,SKC,5.79,WeatherDisplay:10.37,2013-07-09 19:34:00,
2013-07-09 14:39:00,93.4,74.8,29.78,SE,131,6.9,6.9,55,0.01,CLR,SKC,5.79,WeatherDisplay:10.37,2013-07-09 19:39:00,
2013-07-09 14:44:00,93.2,74.1,29.78,SW,221,4.6,4.6,54,0.01,CLR,SKC,5.79,WeatherDisplay:10.37,2013-07-09 19:44:00,
2013-07-09 14:49:00,93.7,75.6,29.78,South,189,1.0,7.0,56,0.00,CLR,SKC,5.79,WeatherDisplay:10.37,2013-07-09 19:49:00,
2013-07-09 14:54:00,94.1,75.5,29.78,SSW,196,4.6,4.6,55,0.00,CLR,SKC,5.79,WeatherDisplay:10.37,2013-07-09 19:54:00,
2013-07-09 14:59:00,94.1,75.5,29.78,South,180,6.4,6.4,55,0.00,CLR,SKC,5.79,WeatherDisplay:10.37,2013-07-09 19:59:00,
2013-07-09 15:05:00,93.5,76.0,29.77,East,82,3.2,3.2,57,0.00,CLR,SKC,5.79,WeatherDisplay:10.37,2013-07-09 20:05:00,
2013-07-09 15:10:00,93.5,75.4,29.78,SSE,159,6.9,6.9,56,0.00,CLR,SKC,5.79,WeatherDisplay:10.37,2013-07-09 20:10:00,
2013-07-09 15:15:00,93.6,76.1,29.78,SSW,198,5.3,5.3,57,0.51,RA,SKC,6.56,WeatherDisplay:10.37,2013-07-09 20:15:00,
2013-07-09 15:20:00,94.1,74.4,29.78,SSE,155,6.9,6.9,53,1.68,RA,SKC,7.47,WeatherDisplay:10.37,2013-07-09 20:20:00,
2013-07-09 15:25:00,94.3,75.1,29.78,South,180,4.6,4.6,54,2.42,RA,SKC,8.21,WeatherDisplay:10.37,2013-07-09 20:25:00,
2013-07-09 15:30:00,94.8,73.8,29.78,SW,226,2.3,2.3,51,2.95,RA,SKC,8.73,WeatherDisplay:10.37,2013-07-09 20:30:00,
2013-07-09 15:35:00,94.9,74.5,29.78,West,274,4.6,4.6,52,3.16,RA,SKC,9.13,WeatherDisplay:10.37,2013-07-09 20:35:00,
2013-07-09 15:40:00,95.2,74.2,29.78,WNW,283,4.6,4.6,51,3.40,RA,SKC,9.18,WeatherDisplay:10.37,2013-07-09 20:40:00,
2013-07-09 15:45:00,95.0,74.0,29.78,WNW,290,3.5,3.5,51,3.40,RA,SKC,9.18,WeatherDisplay:10.37,2013-07-09 20:45:00,
2013-07-09 15:50:00,95.1,74.1,29.78,SSW,213,5.3,5.3,51,3.40,CLR,SKC,9.18,WeatherDisplay:10.37,2013-07-09 20:50:00,
2013-07-09 15:55:00,95.4,73.2,29.78,SSW,213,7.4,7.4,49,3.40,CLR,SKC,9.18,WeatherDisplay:10.37,2013-07-09 20:55:00,
2013-07-09 16:00:00,95.3,72.5,29.78,SE,136,4.6,4.6,48,3.40,CLR,SKC,9.18,WeatherDisplay:10.37,2013-07-09 21:00:00,
2013-07-09 16:05:00,95.6,73.4,29.78,South,182,6.9,6.9,49,3.40,CLR,SKC,9.18,WeatherDisplay:10.37,2013-07-09 21:05:00,
2013-07-09 16:10:00,95.9,73.7,29.78,SSW,192,4.6,4.6,49,3.40,CLR,SKC,9.18,WeatherDisplay:10.37,2013-07-09 21:10:00,
2013-07-09 16:15:00,96.2,73.9,29.78,WNW,290,1.2,1.2,49,2.89,CLR,SKC,9.18,WeatherDisplay:10.37,2013-07-09 21:15:00,
2013-07-09 16:20:00,96.4,74.1,29.78,SSE,149,4.2,4.2,49,1.72,CLR,SKC,9.18,WeatherDisplay:10.37,2013-07-09 21:20:00,
2013-07-09 16:25:00,96.2,72.7,29.78,South,190,5.8,5.8,47,0.98,CLR,SKC,9.18,WeatherDisplay:10.37,2013-07-09 21:25:00,
2013-07-09 16:30:00,96.0,73.1,29.78,SSW,210,3.5,3.5,48,0.45,CLR,SKC,9.18,WeatherDisplay:10.37,2013-07-09 21:30:00,
2013-07-09 16:35:00,96.2,72.7,29.78,WNW,288,5.8,5.8,47,0.24,CLR,SKC,9.18,WeatherDisplay:10.37,2013-07-09 21:35:00,
2013-07-09 16:40:00,96.5,73.6,29.77,ENE,68,0.0,0.0,48,0.00,CLR,SKC,9.18,WeatherDisplay:10.37,2013-07-09 21:40:00,
2013-07-09 16:45:00,97.2,73.0,29.77,NW,322,3.5,3.5,46,0.00,CLR,SKC,9.18,WeatherDisplay:10.37,2013-07-09 21:45:00,
2013-07-09 16:50:00,96.9,73.3,29.77,South,178,2.3,2.3,47,0.00,CLR,SKC,9.18,WeatherDisplay:10.37,2013-07-09 21:50:00,
2013-07-09 16:55:00,96.7,74.4,29.77,West,276,3.5,3.5,49,0.00,CLR,SKC,9.18,WeatherDisplay:10.37,2013-07-09 21:55:00,
2013-07-09 17:00:00,96.7,74.4,29.77,West,271,2.3,0.0,49,0.00,CLR,SKC,9.18,WeatherDisplay:10.37,2013-07-09 22:00:00,
2013-07-09 17:05:00,96.7,75.6,29.77,WNW,283,4.6,4.6,51,0.00,CLR,SKC,9.18,WeatherDisplay:10.37,2013-07-09 22:05:00,
2013-07-09 17:10:00,96.8,73.9,29.77,WNW,297,5.8,5.8,48,0.00,CLR,SKC,9.18,WeatherDisplay:10.37,2013-07-09 22:10:00,
2013-07-09 17:15:00,96.2,73.3,29.76,WSW,240,2.3,2.3,48,0.00,CLR,SKC,9.18,WeatherDisplay:10.37,2013-07-09 22:15:00,
2013-07-09 17:20:00,96.8,73.2,29.76,NNW,337,3.2,3.2,47,0.00,CLR,SKC,9.18,WeatherDisplay:10.37,2013-07-09 22:20:00,
2013-07-09 17:25:00,96.4,72.9,29.76,NW,309,4.6,4.6,47,0.00,CLR,SKC,9.18,WeatherDisplay:10.37,2013-07-09 22:25:00,
2013-07-09 17:30:00,96.4,72.2,29.76,South,171,2.3,2.3,46,0.00,CLR,SKC,9.18,WeatherDisplay:10.37,2013-07-09 22:30:00,
2013-07-09 17:35:00,96.6,73.1,29.76,SSW,208,0.0,0.0,47,0.00,CLR,SKC,9.18,WeatherDisplay:10.37,2013-07-09 22:35:00,
2013-07-09 17:40:00,96.9,72.7,29.76,SW,221,4.2,4.2,46,0.00,CLR,SKC,9.18,WeatherDisplay:10.37,2013-07-09 22:40:00,
2013-07-09 17:45:00,96.7,75.6,29.76,SSW,205,3.2,3.2,51,0.00,CLR,SKC,9.18,WeatherDisplay:10.37,2013-07-09 22:45:00,
2013-07-09 17:50:00,96.5,73.0,29.76,SSE,158,0.0,0.0,47,0.00,CLR,SKC,9.18,WeatherDisplay:10.37,2013-07-09 22:50:00,
2013-07-09 17:55:00,97.3,73.1,29.76,WSW,240,0.0,0.0,46,0.00,CLR,SKC,9.18,WeatherDisplay:10.37,2013-07-09 22:55:00,
2013-07-09 18:00:00,97.1,73.5,29.76,NE,44,0.0,0.0,47,0.00,CLR,SKC,9.18,WeatherDisplay:10.37,2013-07-09 23:00:00,
2013-07-09 18:05:00,96.4,74.7,29.76,NE,44,0.0,0.0,50,0.00,CLR,SKC,9.18,WeatherDisplay:10.37,2013-07-09 23:05:00,
2013-07-09 18:10:00,96.1,73.8,29.76,NNE,26,3.5,3.5,49,0.00,CLR,SKC,9.18,WeatherDisplay:10.37,2013-07-09 23:10:00,
2013-07-09 18:15:00,95.9,73.7,29.76,NNE,32,0.0,0.0,49,0.00,CLR,SKC,9.18,WeatherDisplay:10.37,2013-07-09 23:15:00,
2013-07-09 18:20:00,95.9,73.7,29.76,North,9,3.5,3.5,49,0.00,CLR,SKC,9.18,WeatherDisplay:10.37,2013-07-09 23:20:00,
2013-07-09 18:25:00,95.9,73.7,29.76,NNW,338,3.5,3.5,49,0.00,CLR,SKC,9.18,WeatherDisplay:10.37,2013-07-09 23:25:00,
2013-07-09 18:30:00,95.9,74.3,29.76,NE,46,0.0,0.0,50,0.00,CLR,SKC,9.18,WeatherDisplay:10.37,2013-07-09 23:30:00,
2013-07-09 18:35:00,95.4,72.6,29.75,NNW,332,4.6,4.6,48,0.00,CLR,SKC,9.18,WeatherDisplay:10.37,2013-07-09 23:35:00,
2013-07-09 18:40:00,95.6,75.2,29.76,ENE,62,0.0,0.0,52,0.00,CLR,SKC,9.18,WeatherDisplay:10.37,2013-07-09 23:40:00,
2013-07-09 18:45:00,95.2,73.6,29.76,NE,47,0.0,0.0,50,0.00,CLR,SKC,9.18,WeatherDisplay:10.37,2013-07-09 23:45:00,
2013-07-09 18:50:00,94.9,73.4,29.76,NE,37,0.0,0.0,50,0.00,CLR,SKC,9.18,WeatherDisplay:10.37,2013-07-09 23:50:00,
2013-07-09 18:55:00,95.2,74.2,29.76,NE,37,0.0,0.0,51,0.00,CLR,SKC,9.18,WeatherDisplay:10.37,2013-07-09 23:55:00,
2013-07-09 19:00:00,94.9,72.8,29.76,ENE,58,0.0,0.0,49,0.00,CLR,SKC,9.18,WeatherDisplay:10.37,2013-07-10 00:00:00,
2013-07-09 19:05:00,94.4,74.6,29.76,ENE,68,0.0,0.0,53,0.00,RA,SKC,0.10,WeatherDisplay:10.37,2013-07-10 00:05:00,
2013-07-09 19:10:00,94.0,74.3,29.76,North,9,3.5,3.5,53,0.00,RA,SKC,0.10,WeatherDisplay:10.37,2013-07-10 00:10:00,
2013-07-09 19:15:00,93.8,75.2,29.76,ENE,60,0.0,0.0,55,0.00,CLR,SKC,0.10,WeatherDisplay:10.37,2013-07-10 00:15:00,
2013-07-09 19:20:00,94.4,76.3,29.76,NE,51,0.0,0.0,56,0.00,CLR,SKC,0.10,WeatherDisplay:10.37,2013-07-10 00:20:00,
2013-07-09 19:25:00,93.8,76.3,29.76,NE,49,0.0,0.0,57,0.00,CLR,SKC,0.10,WeatherDisplay:10.37,2013-07-10 00:25:00,
2013-07-09 19:30:00,93.0,76.0,29.77,ENE,58,4.2,4.2,58,0.00,CLR,SKC,0.10,WeatherDisplay:10.37,2013-07-10 00:30:00,
2013-07-09 19:35:00,92.4,76.5,29.76,NE,49,6.9,6.9,60,0.00,CLR,SKC,0.10,WeatherDisplay:10.37,2013-07-10 00:35:00,
2013-07-09 19:40:00,91.7,76.3,29.76,NE,52,6.4,6.4,61,0.00,CLR,SKC,0.10,WeatherDisplay:10.37,2013-07-10 00:40:00,
2013-07-09 19:45:00,90.8,76.5,29.77,ENE,58,5.8,5.8,63,0.00,CLR,SKC,0.10,WeatherDisplay:10.37,2013-07-10 00:45:00,
2013-07-09 19:50:00,90.1,76.7,29.76,NE,48,5.3,5.3,65,0.00,CLR,SKC,0.10,WeatherDisplay:10.37,2013-07-10 00:50:00,
2013-07-09 19:55:00,89.5,76.6,29.77,NE,46,4.2,4.2,66,0.00,CLR,SKC,0.10,WeatherDisplay:10.37,2013-07-10 00:55:00,
2013-07-09 20:00:00,89.1,76.7,29.76,NE,51,4.6,4.6,67,0.00,CLR,SKC,0.10,WeatherDisplay:10.37,2013-07-10 01:00:00,
2013-07-09 20:05:00,88.6,76.7,29.76,NE,46,2.3,2.3,68,0.00,CLR,SKC,0.10,WeatherDisplay:10.37,2013-07-10 01:05:00,
2013-07-09 20:10:00,88.2,76.7,29.76,NE,53,3.5,3.5,69,0.00,CLR,SKC,0.10,WeatherDisplay:10.37,2013-07-10 01:10:00,
2013-07-09 20:15:00,87.9,76.9,29.77,NE,47,0.0,0.0,70,0.00,CLR,SKC,0.10,WeatherDisplay:10.37,2013-07-10 01:15:00,
2013-07-09 20:20:00,87.5,76.9,29.77,NE,41,3.5,3.5,71,0.00,CLR,SKC,0.10,WeatherDisplay:10.37,2013-07-10 01:20:00,
2013-07-09 20:25:00,87.2,77.1,29.77,NE,47,0.0,0.0,72,0.00,CLR,SKC,0.10,WeatherDisplay:10.37,2013-07-10 01:25:00,
2013-07-09 20:30:00,86.9,76.8,29.77,NE,45,0.0,0.0,72,0.00,CLR,SKC,0.10,WeatherDisplay:10.37,2013-07-10 01:30:00,
2013-07-09 20:36:00,86.7,77.0,29.77,NE,49,0.0,0.0,73,0.00,CLR,SKC,0.10,WeatherDisplay:10.37,2013-07-10 01:36:00,
2013-07-09 20:41:00,86.2,76.9,29.78,NE,49,0.0,0.0,74,0.00,CLR,SKC,0.10,WeatherDisplay:10.37,2013-07-10 01:41:00,
2013-07-09 20:46:00,85.6,76.8,29.78,NE,49,0.0,0.0,75,0.00,CLR,SKC,0.10,WeatherDisplay:10.37,2013-07-10 01:46:00,
2013-07-09 20:51:00,85.3,76.9,29.78,NE,49,0.0,0.0,76,0.00,CLR,SKC,0.10,WeatherDisplay:10.37,2013-07-10 01:51:00,
2013-07-09 20:56:00,84.9,76.9,29.78,NE,49,0.0,0.0,77,0.00,CLR,SKC,0.10,WeatherDisplay:10.37,2013-07-10 01:56:00,
2013-07-09 21:01:00,84.7,76.7,29.79,NE,49,0.0,0.0,77,0.00,CLR,SKC,0.10,WeatherDisplay:10.37,2013-07-10 02:01:00,
2013-07-09 21:06:00,84.2,76.6,29.79,NE,49,0.0,0.0,78,0.00,CLR,SKC,0.10,WeatherDisplay:10.37,2013-07-10 02:06:00,
2013-07-09 21:11:00,83.9,76.7,29.78,NE,49,0.0,0.0,79,0.00,CLR,SKC,0.10,WeatherDisplay:10.37,2013-07-10 02:11:00,
2013-07-09 21:16:00,83.7,76.5,29.78,NE,50,0.0,0.0,79,0.00,CLR,SKC,0.10,WeatherDisplay:10.37,2013-07-10 02:16:00,
2013-07-09 21:21:00,83.4,76.6,29.78,NE,49,0.0,0.0,80,0.00,CLR,SKC,0.10,WeatherDisplay:10.37,2013-07-10 02:21:00,
2013-07-09 21:26:00,83.1,76.7,29.79,NE,49,0.0,0.0,81,0.00,CLR,SKC,0.10,WeatherDisplay:10.37,2013-07-10 02:26:00,
2013-07-09 21:31:00,82.9,76.5,29.78,NE,48,0.0,0.0,81,0.00,CLR,SKC,0.10,WeatherDisplay:10.37,2013-07-10 02:31:00,
2013-07-09 21:36:00,82.7,76.3,29.78,North,356,0.0,0.0,81,0.00,CLR,SKC,0.10,WeatherDisplay:10.37,2013-07-10 02:36:00,
2013-07-09 21:41:00,82.7,76.3,29.78,NNE,14,0.0,0.0,81,0.00,CLR,SKC,0.10,WeatherDisplay:10.37,2013-07-10 02:41:00,
2013-07-09 21:46:00,82.6,76.2,29.78,NE,37,0.0,0.0,81,0.00,CLR,SKC,0.10,WeatherDisplay:10.37,2013-07-10 02:46:00,
2013-07-09 21:51:00,82.7,76.6,29.79,North,352,0.0,0.0,82,0.00,CLR,SKC,0.10,WeatherDisplay:10.37,2013-07-10 02:51:00,
2013-07-09 21:56:00,82.9,76.5,29.79,NE,50,0.0,0.0,81,0.00,CLR,SKC,0.10,WeatherDisplay:10.37,2013-07-10 02:56:00,
2013-07-09 22:01:00,83.0,76.6,29.78,NE,50,0.0,0.0,81,0.00,CLR,SKC,0.10,WeatherDisplay:10.37,2013-07-10 03:01:00,
2013-07-09 22:06:00,83.0,76.6,29.79,North,8,0.0,0.0,81,0.00,CLR,SKC,0.10,WeatherDisplay:10.37,2013-07-10 03:06:00,
2013-07-09 22:11:00,82.9,76.8,29.80,North,3,0.0,0.0,82,0.00,CLR,SKC,0.10,WeatherDisplay:10.37,2013-07-10 03:11:00,
2013-07-09 22:16:00,82.8,76.7,29.80,NE,46,0.0,0.0,82,0.00,CLR,SKC,0.10,WeatherDisplay:10.37,2013-07-10 03:16:00,
2013-07-09 22:21:00,82.6,76.5,29.80,NE,35,0.0,0.0,82,0.00,CLR,SKC,0.10,WeatherDisplay:10.37,2013-07-10 03:21:00,
2013-07-09 22:26:00,82.5,76.4,29.80,ENE,63,0.0,0.0,82,0.00,CLR,SKC,0.10,WeatherDisplay:10.37,2013-07-10 03:26:00,
2013-07-09 22:31:00,82.5,76.4,29.79,NE,43,4.6,4.6,82,0.00,CLR,SKC,0.10,WeatherDisplay:10.37,2013-07-10 03:31:00,
2013-07-09 22:36:00,82.4,76.3,29.78,ENE,60,4.6,4.6,82,0.00,CLR,SKC,0.10,WeatherDisplay:10.37,2013-07-10 03:36:00,
2013-07-09 22:41:00,82.3,76.6,29.79,NE,56,3.5,3.5,83,0.00,CLR,SKC,0.10,WeatherDisplay:10.37,2013-07-10 03:41:00,
2013-07-09 22:46:00,82.3,76.6,29.80,NNE,16,4.6,4.6,83,0.00,CLR,SKC,0.10,WeatherDisplay:10.37,2013-07-10 03:46:00,
2013-07-09 22:51:00,82.2,76.5,29.81,North,9,0.0,0.0,83,0.00,CLR,SKC,0.10,WeatherDisplay:10.37,2013-07-10 03:51:00,
2013-07-09 22:56:00,82.1,76.4,29.82,NNW,331,6.9,6.9,83,0.00,CLR,SKC,0.10,WeatherDisplay:10.37,2013-07-10 03:56:00,
2013-07-09 23:01:00,82.1,76.4,29.83,NW,311,5.3,5.3,83,0.00,CLR,SKC,0.10,WeatherDisplay:10.37,2013-07-10 04:01:00,
2013-07-09 23:06:00,82.4,76.0,29.84,NNW,340,6.4,6.4,81,0.00,CLR,SKC,0.10,WeatherDisplay:10.37,2013-07-10 04:06:00,
2013-07-09 23:11:00,82.6,75.4,29.84,NW,316,8.5,8.5,79,0.00,CLR,SKC,0.10,WeatherDisplay:10.37,2013-07-10 04:11:00,
2013-07-09 23:16:00,82.7,75.1,29.83,NW,326,6.9,6.9,78,0.00,CLR,SKC,0.10,WeatherDisplay:10.37,2013-07-10 04:16:00,
2013-07-09 23:21:00,82.7,74.8,29.83,NNE,25,4.2,4.2,77,0.00,CLR,SKC,0.10,WeatherDisplay:10.37,2013-07-10 04:21:00,
2013-07-09 23:26:00,82.6,74.3,29.83,NNE,12,8.5,8.5,76,0.00,CLR,SKC,0.10,WeatherDisplay:10.37,2013-07-10 04:26:00,
2013-07-09 23:31:00,82.5,74.2,29.83,North,6,8.5,8.5,76,0.00,CLR,SKC,0.10,WeatherDisplay:10.37,2013-07-10 04:31:00,
2013-07-09 23:36:00,82.4,74.1,29.84,NNW,344,5.8,5.8,76,0.00,CLR,SKC,0.10,WeatherDisplay:10.37,2013-07-10 04:36:00,
2013-07-09 23:41:00,82.3,74.0,29.84,NNW,338,6.9,6.9,76,0.00,CLR,SKC,0.10,WeatherDisplay:10.37,2013-07-10 04:41:00,
2013-07-09 23:46:00,81.9,74.0,29.84,North,349,3.5,3.5,77,0.00,CLR,SKC,0.10,WeatherDisplay:10.37,2013-07-10 04:46:00,
2013-07-09 23:51:00,81.6,74.1,29.84,NNW,346,6.9,6.9,78,0.00,CLR,SKC,0.10,WeatherDisplay:10.37,2013-07-10 04:51:00,
2013-07-09 23:56:00,81.5,74.0,29.84,NNW,339,6.9,6.9,78,0.00,CLR,SKC,0.10,WeatherDisplay:10.37,2013-07-10 04:56:00,